Location: Chamerau
(49.1969°N, 12.7525°E)
Time: 09:11:08
(UTC+00:00)

Cosmos 2142 Rocket - Pass Details

Date: 18 September 2020
Orbit: 952 x 1005 km, 82.9° (Epoch: 27 October)

Event Time Altitude Azimuth Distance (km) Brightness Sun altitude
Exits shadow 20:21:18 67° 200° (SSW) 1,063 4.5 -28.6°
Maximum altitude 20:22:14 85° 279° (W) 993 4.4 -28.7°
Drops below altitude 10° 20:28:31 10° 9° (N) 2,730 7.2 -29.5°
Sets 20:31:01 0° 10° (N) 3,674 8.0 -29.7°
